,,,PA_Meas_PMT16A,,PR_Meas_QMR101_102,,RH_Meas_QMH101,,SR_Meas_QMS101,,TA_Meas_QMH101,,GenWind,,GenWind,
date,time,status,PA,status,PR,status,RH,status,SR,status,TA,status,DirAvg,status,SpdAvg,
2010-05-17, 00:00:04,VALID,999.708,VALID,0,VALID,90.4873,VALID,0,VALID,24.4037,VALID,110,VALID,0.253125,
2010-05-17, 00:01:04,VALID,999.676,VALID,0,VALID,90.6017,VALID,0,VALID,24.3647,VALID,110,VALID,0.259766,
2010-05-17, 00:02:04,VALID,999.7,VALID,0,VALID,90.6475,VALID,0,VALID,24.3452,VALID,109,VALID,0.361719,
2010-05-17, 00:03:04,VALID,999.752,VALID,0,VALID,90.6399,VALID,0,VALID,24.3452,VALID,101,VALID,0.70625,
2010-05-17, 00:04:04,VALID,999.747,VALID,0,VALID,90.556,VALID,0,VALID,24.3452,VALID,93,VALID,0.745703,
2010-05-17, 00:05:04,VALID,999.777,VALID,0,VALID,90.4797,VALID,0,VALID,24.3647,VALID,92,VALID,0.629687,
2010-05-17, 00:06:04,VALID,999.724,VALID,0,VALID,90.2431,VALID,0,VALID,24.3842,VALID,95,VALID,0.473828,
2010-05-17, 00:07:04,VALID,999.721,VALID,0,VALID,90.1134,VALID,0,VALID,24.4037,VALID,95,VALID,0.625,
2010-05-17, 00:08:04,VALID,999.739,VALID,0,VALID,89.9837,VALID,0,VALID,24.4037,VALID,95,VALID,0.397656,
2010-05-17, 00:09:04,VALID,999.717,VALID,0,VALID,89.8846,VALID,0,VALID,24.4233,VALID,95,VALID,0.324219,
2010-05-17, 00:10:04,VALID,999.697,VALID,0,VALID,89.854,VALID,0,VALID,24.4037,VALID,95,VALID,0.297266,
2010-05-17, 00:11:04,VALID,999.664,VALID,0,VALID,89.8846,VALID,0,VALID,24.4037,VALID,95,VALID,0.144922,
2010-05-17, 00:12:04,VALID,999.607,VALID,0,VALID,89.8922,VALID,0,VALID,24.4056,VALID,95,VALID,0.211328,
2010-05-17, 00:13:04,VALID,999.641,VALID,0,VALID,89.8311,VALID,0,VALID,24.3842,VALID,95,VALID,0,
2010-05-17, 00:14:04,VALID,999.637,VALID,0,VALID,89.854,VALID,0,VALID,24.3842,VALID,95,VALID,0,
2010-05-17, 00:15:04,VALID,999.643,VALID,0,VALID,89.8769,VALID,0,VALID,24.3647,VALID,95,VALID,0.0332031,
2010-05-17, 00:16:04,VALID,999.676,VALID,0,VALID,89.854,VALID,0,VALID,24.3647,VALID,95,VALID,0,
2010-05-17, 00:17:04,VALID,999.679,VALID,0,VALID,89.9151,VALID,0,VALID,24.3452,VALID,95,VALID,0.115234,
2010-05-17, 00:18:04,VALID,999.68,VALID,0,VALID,89.8617,VALID,0,VALID,24.3452,VALID,95,VALID,0.382031,
2010-05-17, 00:19:04,VALID,999.662,VALID,0,VALID,89.7243,VALID,0,VALID,24.3257,VALID,51,VALID,0.750781,
2010-05-17, 00:20:04,VALID,999.634,VALID,0,VALID,89.7701,VALID,0,VALID,24.3257,VALID,41,VALID,0.680469,
2010-05-17, 00:21:04,VALID,999.629,VALID,0,VALID,89.7625,VALID,0,VALID,24.2848,VALID,35,VALID,0.870313,
2010-05-17, 00:22:04,VALID,999.584,VALID,0,VALID,89.8922,VALID,0,VALID,24.3062,VALID,22,VALID,0.676953,
2010-05-17, 00:23:04,VALID,999.575,VALID,0,VALID,89.9456,VALID,0,VALID,24.2458,VALID,22,VALID,0.340625,
2010-05-17, 00:24:04,VALID,999.537,VALID,0,VALID,90.3194,VALID,0,VALID,24.2476,VALID,354,VALID,0.672266,
2010-05-17, 00:25:04,VALID,999.555,VALID,0,VALID,90.617,VALID,0,VALID,24.2476,VALID,354,VALID,0.683984,
2010-05-17, 00:26:04,VALID,999.531,VALID,0,VALID,90.6857,VALID,0,VALID,24.2263,VALID,356,VALID,1.11758,
2010-05-17, 00:27:04,VALID,999.503,VALID,0,VALID,90.7085,VALID,0,VALID,24.2086,VALID,357,VALID,1.10312,
2010-05-17, 00:28:04,VALID,999.505,VALID,0,VALID,90.7467,VALID,0,VALID,24.1891,VALID,8,VALID,0.958984,
2010-05-17, 00:29:04,VALID,999.478,VALID,0,VALID,90.823,VALID,0,VALID,24.1696,VALID,11,VALID,0.970312,
2010-05-17, 00:30:04,VALID,999.477,VALID,0,VALID,90.9756,VALID,0,VALID,24.1482,VALID,11,VALID,0.672656,
2010-05-17, 00:31:04,VALID,999.478,VALID,0,VALID,91.0595,VALID,0,VALID,24.1696,VALID,11,VALID,0.54375,
2010-05-17, 00:32:04,VALID,999.495,VALID,0,VALID,91.235,VALID,0,VALID,24.15,VALID,11,VALID,0.353125,
2010-05-17, 00:33:04,VALID,999.486,VALID,0,VALID,91.2197,VALID,0,VALID,24.1696,VALID,11,VALID,0.123047,
2010-05-17, 00:34:04,VALID,999.478,VALID,0,VALID,91.1434,VALID,0,VALID,24.15,VALID,11,VALID,0,
2010-05-17, 00:35:04,VALID,999.514,VALID,0,VALID,91.1587,VALID,0,VALID,24.1305,VALID,11,VALID,0.220703,
2010-05-17, 00:36:04,VALID,999.487,VALID,0,VALID,91.3952,VALID,0,VALID,24.1305,VALID,111,VALID,0.521875,
2010-05-17, 00:37:04,VALID,999.486,VALID,0,VALID,91.5097,VALID,0,VALID,24.15,VALID,115,VALID,0.703516,
2010-05-17, 00:38:04,VALID,999.461,VALID,0,VALID,91.7614,VALID,0,VALID,24.1891,VALID,115,VALID,0.622266,
2010-05-17, 00:39:04,VALID,999.469,VALID,0,VALID,91.6928,VALID,0,VALID,24.2086,VALID,115,VALID,0.508984,
2010-05-17, 00:40:04,VALID,999.435,VALID,0,VALID,91.586,VALID,0,VALID,24.2476,VALID,115,VALID,0.2625,
2010-05-17, 00:41:04,VALID,999.433,VALID,0,VALID,91.5554,VALID,0,VALID,24.2476,VALID,115,VALID,0.364844,
2010-05-17, 00:42:04,VALID,999.422,VALID,0,VALID,91.502,VALID,0,VALID,24.2476,VALID,116,VALID,0.195313,
2010-05-17, 00:43:04,VALID,999.469,VALID,0,VALID,91.4181,VALID,0,VALID,24.2281,VALID,116,VALID,0.130078,
2010-05-17, 00:44:04,VALID,999.474,VALID,0,VALID,91.441,VALID,0,VALID,24.2281,VALID,116,VALID,0.0914062,
2010-05-17, 00:45:04,VALID,999.52,VALID,0,VALID,91.4715,VALID,0,VALID,24.2086,VALID,116,VALID,0,
2010-05-17, 00:46:04,VALID,999.49,VALID,0,VALID,91.4639,VALID,0,VALID,24.2086,VALID,116,VALID,0.00429688,
2010-05-17, 00:47:04,VALID,999.486,VALID,0,VALID,91.4563,VALID,0,VALID,24.1891,VALID,132,VALID,0.275391,
2010-05-17, 00:48:04,VALID,999.453,VALID,0,VALID,91.5097,VALID,0,VALID,24.2086,VALID,132,VALID,0.207813,
2010-05-17, 00:49:04,VALID,999.423,VALID,0,VALID,91.5478,VALID,0,VALID,24.2086,VALID,136,VALID,0.485547,
2010-05-17, 00:50:04,VALID,999.409,VALID,0,VALID,91.5631,VALID,0,VALID,24.2476,VALID,136,VALID,0.257813,
2010-05-17, 00:51:04,VALID,999.416,VALID,0,VALID,91.4639,VALID,0,VALID,24.2671,VALID,136,VALID,0.240234,
2010-05-17, 00:52:04,VALID,999.409,VALID,0,VALID,91.3571,VALID,0,VALID,24.2866,VALID,140,VALID,0.257422,
2010-05-17, 00:53:04,VALID,999.388,VALID,0,VALID,91.2808,VALID,0,VALID,24.3062,VALID,139,VALID,0,
2010-05-17, 00:54:04,VALID,999.381,VALID,0,VALID,91.1816,VALID,0,VALID,24.2866,VALID,140,VALID,0.145313,
2010-05-17, 00:55:04,VALID,999.393,VALID,0,VALID,91.3266,VALID,0,VALID,24.3062,VALID,181,VALID,0.691406,
2010-05-17, 00:56:04,VALID,999.416,VALID,0,VALID,91.2579,VALID,0,VALID,24.3433,VALID,181,VALID,0.791406,
2010-05-17, 00:57:04,VALID,999.436,VALID,0,VALID,91.0443,VALID,0,VALID,24.4233,VALID,183,VALID,1.09961,
2010-05-17, 00:58:04,VALID,999.411,VALID,0,VALID,90.762,VALID,0,VALID,24.4623,VALID,166,VALID,1.33281,
2010-05-17, 00:59:04,VALID,999.407,VALID,0,VALID,90.5636,VALID,0,VALID,24.4818,VALID,162,VALID,1.14961,
2010-05-17, 01:00:04,VALID,999.436,VALID,0,VALID,90.3118,VALID,0,VALID,24.4818,VALID,153,VALID,1.02852,
2010-05-17, 01:01:04,VALID,999.408,VALID,0,VALID,90.1897,VALID,0,VALID,24.5013,VALID,169,VALID,0.736328,
2010-05-17, 01:02:04,VALID,999.421,VALID,0,VALID,90.1134,VALID,0,VALID,24.5013,VALID,166,VALID,0.825391,
2010-05-17, 01:03:04,VALID,999.4,VALID,0,VALID,90.0524,VALID,0,VALID,24.5013,VALID,159,VALID,0.2625,
2010-05-17, 01:04:04,VALID,999.406,VALID,0,VALID,90.0906,VALID,0,VALID,24.4818,VALID,161,VALID,0.377344,
2010-05-17, 01:05:04,VALID,999.432,VALID,0,VALID,90.1211,VALID,0,VALID,24.5013,VALID,168,VALID,0.148438,
2010-05-17, 01:06:04,VALID,999.407,VALID,0,VALID,90.1058,VALID,0,VALID,24.4818,VALID,168,VALID,0.160938,
2010-05-17, 01:07:04,VALID,999.39,VALID,0,VALID,90.1211,VALID,0,VALID,24.5013,VALID,168,VALID,0.0539063,
2010-05-17, 01:08:04,VALID,999.356,VALID,0,VALID,90.266,VALID,0,VALID,24.4818,VALID,168,VALID,0.263672,
2010-05-17, 01:09:04,VALID,999.332,VALID,0,VALID,90.3194,VALID,0,VALID,24.4818,VALID,168,VALID,0.143359,
2010-05-17, 01:10:04,VALID,999.306,VALID,0,VALID,90.266,VALID,0,VALID,24.4604,VALID,168,VALID,0,
2010-05-17, 01:11:04,VALID,999.297,VALID,0,VALID,90.2737,VALID,0,VALID,24.4623,VALID,168,VALID,0,
2010-05-17, 01:12:04,VALID,999.285,VALID,0,VALID,90.3576,VALID,0,VALID,24.4428,VALID,168,VALID,0,
2010-05-17, 01:13:04,VALID,999.255,VALID,0,VALID,90.411,VALID,0,VALID,24.4428,VALID,168,VALID,0,
2010-05-17, 01:14:04,VALID,999.244,VALID,0,VALID,90.3957,VALID,0,VALID,24.4446,VALID,168,VALID,0,
2010-05-17, 01:15:04,VALID,999.242,VALID,0,VALID,90.3728,VALID,0,VALID,24.4037,VALID,168,VALID,0,
2010-05-17, 01:16:04,VALID,999.227,VALID,0,VALID,90.2889,VALID,0,VALID,24.3842,VALID,151,VALID,0.393359,
2010-05-17, 01:17:04,VALID,999.23,VALID,0,VALID,90.266,VALID,0,VALID,24.3647,VALID,113,VALID,0.588672,
2010-05-17, 01:18:04,VALID,999.273,VALID,0,VALID,90.2431,VALID,0,VALID,24.3842,VALID,83,VALID,0.850391,
2010-05-17, 01:19:04,VALID,999.285,VALID,0,VALID,90.3881,VALID,0,VALID,24.3647,VALID,83,VALID,0.853125,
2010-05-17, 01:20:04,VALID,999.285,VALID,0,VALID,90.556,VALID,0,VALID,24.3647,VALID,83,VALID,0.680469,
2010-05-17, 01:21:04,VALID,999.299,VALID,0,VALID,90.6094,VALID,0,VALID,24.3647,VALID,83,VALID,0.332812,
2010-05-17, 01:22:04,VALID,999.266,VALID,0,VALID,90.617,VALID,0,VALID,24.3433,VALID,94,VALID,0.505859,
2010-05-17, 01:23:04,VALID,999.265,VALID,0,VALID,90.5941,VALID,0,VALID,24.3842,VALID,168,VALID,0.754687,
2010-05-17, 01:24:04,VALID,999.279,VALID,0,VALID,90.4644,VALID,0,VALID,24.4037,VALID,178,VALID,0.782422,
2010-05-17, 01:25:04,VALID,999.259,VALID,0,VALID,90.2889,VALID,0,VALID,24.4428,VALID,159,VALID,1.05039,
2010-05-17, 01:26:04,VALID,999.283,VALID,0,VALID,90.3118,VALID,0,VALID,24.4818,VALID,138,VALID,1.01563,
2010-05-17, 01:27:04,VALID,999.281,VALID,0,VALID,90.3728,VALID,0,VALID,24.5227,VALID,139,VALID,0.921484,
2010-05-17, 01:28:04,VALID,999.265,VALID,0,VALID,90.2889,VALID,0,VALID,24.5013,VALID,143,VALID,0.858594,
2010-05-17, 01:29:04,VALID,999.287,VALID,0,VALID,90.205,VALID,0,VALID,24.5013,VALID,144,VALID,0.663281,
2010-05-17, 01:30:04,VALID,999.281,VALID,0,VALID,90.1516,VALID,0,VALID,24.5209,VALID,144,VALID,0.597656,
2010-05-17, 01:31:04,VALID,999.326,VALID,0,VALID,90.0829,VALID,0,VALID,24.5209,VALID,144,VALID,0.423047,
2010-05-17, 01:32:04,VALID,999.336,VALID,0,VALID,90.1134,VALID,0,VALID,24.5404,VALID,144,VALID,0.341016,
2010-05-17, 01:33:04,VALID,999.307,VALID,0,VALID,90.0982,VALID,0,VALID,24.5404,VALID,144,VALID,0.332812,
2010-05-17, 01:34:04,VALID,999.285,VALID,0,VALID,90.0677,VALID,0,VALID,24.5599,VALID,144,VALID,0.291406,
2010-05-17, 01:35:04,VALID,999.28,VALID,0,VALID,89.9151,VALID,0,VALID,24.519,VALID,144,VALID,0.224219,
2010-05-17, 01:36:04,VALID,999.274,VALID,0,VALID,89.8235,VALID,0,VALID,24.5599,VALID,143,VALID,0.270703,
2010-05-17, 01:37:04,VALID,999.275,VALID,0,VALID,90.06,VALID,0,VALID,24.5794,VALID,75,VALID,0.571484,
2010-05-17, 01:38:04,VALID,999.273,VALID,0,VALID,90.266,VALID,0,VALID,24.5794,VALID,36,VALID,0.840234,
2010-05-17, 01:39:04,VALID,999.278,VALID,0,VALID,90.411,VALID,0,VALID,24.5794,VALID,32,VALID,0.705078,
2010-05-17, 01:40:04,VALID,999.295,VALID,0,VALID,90.3881,VALID,0,VALID,24.5404,VALID,32,VALID,0.461328,
2010-05-17, 01:41:04,VALID,999.297,VALID,0,VALID,90.4644,VALID,0,VALID,24.519,VALID,32,VALID,0.201172,
2010-05-17, 01:42:04,VALID,999.312,VALID,0,VALID,90.5712,VALID,0,VALID,24.5404,VALID,32,VALID,0.329297,
2010-05-17, 01:43:04,VALID,999.333,VALID,0,VALID,90.4949,VALID,0,VALID,24.519,VALID,32,VALID,0.220703,
2010-05-17, 01:44:04,VALID,999.372,VALID,0,VALID,90.4568,VALID,0,VALID,24.5404,VALID,32,VALID,0.290625,
2010-05-17, 01:45:04,VALID,999.422,VALID,0,VALID,90.3805,VALID,0,VALID,24.5794,VALID,32,VALID,0.567187,
2010-05-17, 01:46:04,VALID,999.491,VALID,0,VALID,90.2889,VALID,0,VALID,24.5794,VALID,44,VALID,0.770312,
2010-05-17, 01:47:04,VALID,999.517,VALID,0,VALID,90.3118,VALID,0,VALID,24.6184,VALID,54,VALID,0.612109,
2010-05-17, 01:48:04,VALID,999.547,VALID,0,VALID,90.411,VALID,0,VALID,24.638,VALID,62,VALID,0.577734,
2010-05-17, 01:49:04,VALID,999.578,VALID,0,VALID,90.4644,VALID,0,VALID,24.638,VALID,67,VALID,0.499219,
2010-05-17, 01:50:04,VALID,999.546,VALID,0,VALID,90.5331,VALID,0,VALID,24.6575,VALID,67,VALID,0.65,
2010-05-17, 01:51:04,VALID,999.573,VALID,0,VALID,90.6933,VALID,0,VALID,24.6361,VALID,67,VALID,0.585156,
2010-05-17, 01:52:04,VALID,999.55,VALID,0,VALID,90.823,VALID,0,VALID,24.6575,VALID,66,VALID,0.564062,
2010-05-17, 01:53:04,VALID,999.544,VALID,0,VALID,90.9222,VALID,0,VALID,24.6575,VALID,50,VALID,0.573828,
2010-05-17, 01:54:04,VALID,999.499,VALID,0,VALID,90.9069,VALID,0,VALID,24.638,VALID,38,VALID,0.735156,
2010-05-17, 01:55:04,VALID,999.491,VALID,0,VALID,90.9527,VALID,0,VALID,24.638,VALID,25,VALID,0.815625,
2010-05-17, 01:56:04,VALID,999.465,VALID,0,VALID,91.0824,VALID,0,VALID,24.6575,VALID,14,VALID,0.610547,
2010-05-17, 01:57:04,VALID,999.445,VALID,0,VALID,91.1816,VALID,0,VALID,24.638,VALID,14,VALID,0.718359,
2010-05-17, 01:58:04,VALID,999.467,VALID,0,VALID,91.2884,VALID,0,VALID,24.638,VALID,14,VALID,0.680859,
2010-05-17, 01:59:04,VALID,999.437,VALID,0.5,VALID,91.3952,VALID,0,VALID,24.5971,VALID,14,VALID,0.485547,
2010-05-17, 02:00:04,VALID,999.38,VALID,0,VALID,91.5173,VALID,0,VALID,24.5989,VALID,14,VALID,0.237891,
2010-05-17, 02:01:04,VALID,999.395,VALID,0,VALID,91.6241,VALID,0,VALID,24.5989,VALID,14,VALID,0.000390625,
2010-05-17, 02:02:04,VALID,999.36,VALID,0,VALID,91.7767,VALID,0,VALID,24.5775,VALID,14,VALID,0.309766,
2010-05-17, 02:03:04,VALID,999.359,VALID,0,VALID,91.853,VALID,0,VALID,24.5794,VALID,15,VALID,0.721094,
2010-05-17, 02:04:04,VALID,999.341,VALID,0,VALID,91.9217,VALID,0,VALID,24.5385,VALID,27,VALID,0.798047,
2010-05-17, 02:05:04,VALID,999.391,VALID,0.5,VALID,91.9751,VALID,0,VALID,24.5404,VALID,40,VALID,0.964453,
2010-05-17, 02:06:04,VALID,999.402,VALID,0,VALID,92.0361,VALID,0,VALID,24.519,VALID,45,VALID,0.840625,
2010-05-17, 02:07:04,VALID,999.465,VALID,0.5,VALID,92.204,VALID,0,VALID,24.5209,VALID,76,VALID,0.884375,
2010-05-17, 02:08:04,VALID,999.472,VALID,0.5,VALID,92.2421,VALID,0,VALID,24.5013,VALID,78,VALID,1.05313,
2010-05-17, 02:09:04,VALID,999.455,VALID,0.5,VALID,92.3108,VALID,0,VALID,24.4818,VALID,71,VALID,1.1793,
2010-05-17, 02:10:04,VALID,999.433,VALID,0,VALID,92.4405,VALID,0,VALID,24.4623,VALID,69,VALID,1.12461,
2010-05-17, 02:11:04,VALID,999.398,VALID,0.5,VALID,92.5549,VALID,0,VALID,24.4428,VALID,65,VALID,0.985547,
2010-05-17, 02:12:04,VALID,999.401,VALID,0.5,VALID,92.6541,VALID,0,VALID,24.4233,VALID,62,VALID,1.02617,
2010-05-17, 02:13:04,VALID,999.446,VALID,0,VALID,92.7685,VALID,0,VALID,24.4233,VALID,62,VALID,0.940234,
2010-05-17, 02:14:04,VALID,999.481,VALID,0.5,VALID,92.8372,VALID,0,VALID,24.4233,VALID,66,VALID,0.815625,
2010-05-17, 02:15:04,VALID,999.473,VALID,0.5,VALID,92.944,VALID,0,VALID,24.4019,VALID,94,VALID,0.667969,
2010-05-17, 02:16:04,VALID,999.492,VALID,0,VALID,93.0432,VALID,0,VALID,24.4037,VALID,123,VALID,0.955469,
2010-05-17, 02:17:04,VALID,999.479,VALID,0.5,VALID,93.1348,VALID,0,VALID,24.4019,VALID,131,VALID,1.24609,
2010-05-17, 02:18:04,VALID,999.491,VALID,0.5,VALID,93.2416,VALID,0,VALID,24.4623,VALID,141,VALID,1.33594,
2010-05-17, 02:19:04,VALID,999.485,VALID,0,VALID,93.3255,VALID,0,VALID,24.5013,VALID,145,VALID,1.40781,
2010-05-17, 02:20:04,VALID,999.492,VALID,0.5,VALID,93.3637,VALID,0,VALID,24.5209,VALID,151,VALID,1.47539,
2010-05-17, 02:21:04,VALID,999.555,VALID,0,VALID,93.3789,VALID,0,VALID,24.4995,VALID,132,VALID,1.93906,
2010-05-17, 02:22:04,VALID,999.614,VALID,0.5,VALID,93.356,VALID,0,VALID,24.5209,VALID,129,VALID,1.70508,
2010-05-17, 02:23:04,VALID,999.652,VALID,0.5,VALID,93.3637,VALID,0,VALID,24.4818,VALID,128,VALID,2.04961,
2010-05-17, 02:24:04,VALID,999.737,VALID,0.5,VALID,93.3713,VALID,0,VALID,24.4818,VALID,121,VALID,2.42148,
2010-05-17, 02:25:04,VALID,999.755,VALID,1,VALID,93.4094,VALID,0,VALID,24.4818,VALID,133,VALID,2.51875,
2010-05-17, 02:26:04,VALID,999.698,VALID,0.5,VALID,93.4323,VALID,0,VALID,24.5013,VALID,145,VALID,2.00508,
2010-05-17, 02:27:04,VALID,999.604,VALID,0.5,VALID,93.3866,VALID,0,VALID,24.4623,VALID,128,VALID,2.91133,
2010-05-17, 02:28:04,VALID,999.537,VALID,0.5,VALID,93.4018,VALID,0,VALID,24.4037,VALID,135,VALID,2.35508,
2010-05-17, 02:29:04,VALID,999.496,VALID,0.5,VALID,93.4781,VALID,0,VALID,24.4233,VALID,157,VALID,2.73008,
2010-05-17, 02:30:04,VALID,999.504,VALID,0,VALID,93.5391,VALID,0,VALID,24.4623,VALID,153,VALID,3.03164,
2010-05-17, 02:31:04,VALID,999.525,VALID,0.5,VALID,93.5468,VALID,0,VALID,24.4623,VALID,136,VALID,2.89023,
2010-05-17, 02:32:04,VALID,999.599,VALID,0.5,VALID,93.5697,VALID,0,VALID,24.4623,VALID,134,VALID,3.15547,
2010-05-17, 02:33:04,VALID,999.643,VALID,0.5,VALID,93.5544,VALID,0,VALID,24.4623,VALID,149,VALID,3.68984,
2010-05-17, 02:34:04,VALID,999.599,VALID,1,VALID,93.5544,VALID,0,VALID,24.4428,VALID,141,VALID,3.15273,
2010-05-17, 02:35:04,VALID,999.556,VALID,1.5,VALID,93.5697,VALID,0,VALID,24.4037,VALID,148,VALID,3.05586,
2010-05-17, 02:36:04,VALID,999.47,VALID,0.5,VALID,93.5773,VALID,0,VALID,24.4037,VALID,163,VALID,3.81406,
2010-05-17, 02:37:04,VALID,999.444,VALID,0.5,VALID,93.6231,VALID,0,VALID,24.3647,VALID,167,VALID,3.00547,
2010-05-17, 02:38:04,VALID,999.445,VALID,0,VALID,93.6383,VALID,0,VALID,24.3842,VALID,172,VALID,3.61875,
2010-05-17, 02:39:04,VALID,999.445,VALID,0,VALID,93.6231,VALID,0,VALID,24.3257,VALID,178,VALID,3.26992,
2010-05-17, 02:40:04,VALID,999.383,VALID,0,VALID,93.6078,VALID,0,VALID,24.3257,VALID,172,VALID,3.14258,
2010-05-17, 02:41:04,VALID,999.391,VALID,0.5,VALID,93.6612,VALID,0,VALID,24.3062,VALID,162,VALID,3.36719,
2010-05-17, 02:42:04,VALID,999.44,VALID,0,VALID,93.6307,VALID,0,VALID,24.3062,VALID,162,VALID,3.31953,
2010-05-17, 02:43:04,VALID,999.465,VALID,0,VALID,93.6688,VALID,0,VALID,24.3062,VALID,162,VALID,2.50195,
2010-05-17, 02:44:04,VALID,999.487,VALID,0,VALID,93.6765,VALID,0,VALID,24.3062,VALID,160,VALID,2.43555,
2010-05-17, 02:45:04,VALID,999.485,VALID,0,VALID,93.6841,VALID,0,VALID,24.3062,VALID,159,VALID,2.72891,
2010-05-17, 02:46:04,VALID,999.468,VALID,0.5,VALID,93.6841,VALID,0,VALID,24.3257,VALID,163,VALID,2.59844,
2010-05-17, 02:47:04,VALID,999.494,VALID,0,VALID,93.6688,VALID,0,VALID,24.2848,VALID,160,VALID,2.73672,
2010-05-17, 02:48:04,VALID,999.475,VALID,0,VALID,93.6917,VALID,0,VALID,24.3062,VALID,168,VALID,2.67188,
2010-05-17, 02:49:04,VALID,999.474,VALID,0,VALID,93.707,VALID,0,VALID,24.3062,VALID,178,VALID,3.48633,
2010-05-17, 02:50:04,VALID,999.459,VALID,0,VALID,93.7299,VALID,0,VALID,24.3257,VALID,180,VALID,2.97305,
2010-05-17, 02:51:04,VALID,999.482,VALID,0.5,VALID,93.6841,VALID,0,VALID,24.2866,VALID,187,VALID,3.3082,
2010-05-17, 02:52:04,VALID,999.446,VALID,0,VALID,93.7146,VALID,0,VALID,24.2866,VALID,183,VALID,3.16914,
2010-05-17, 02:53:04,VALID,999.449,VALID,0,VALID,93.7146,VALID,0,VALID,24.2671,VALID,181,VALID,3.0125,
2010-05-17, 02:54:04,VALID,999.447,VALID,0,VALID,93.6994,VALID,0,VALID,24.2281,VALID,182,VALID,2.85234,
2010-05-17, 02:55:04,VALID,999.432,VALID,0,VALID,93.6917,VALID,0,VALID,24.2281,VALID,184,VALID,3.15352,
2010-05-17, 02:56:04,VALID,999.457,VALID,0,VALID,93.7375,VALID,0,VALID,24.2281,VALID,182,VALID,3.09141,
2010-05-17, 02:57:04,VALID,999.445,VALID,0,VALID,93.7604,VALID,0,VALID,24.2476,VALID,182,VALID,2.67891,
2010-05-17, 02:58:04,VALID,999.433,VALID,0,VALID,93.7604,VALID,0,VALID,24.2671,VALID,174,VALID,3.04844,
2010-05-17, 02:59:04,VALID,999.491,VALID,0,VALID,93.7909,VALID,0,VALID,24.2866,VALID,173,VALID,3.35352,
2010-05-17, 03:00:04,VALID,999.479,VALID,0.5,VALID,93.768,VALID,0,VALID,24.2671,VALID,176,VALID,3.90078,
2010-05-17, 03:01:04,VALID,999.522,VALID,0,VALID,93.7604,VALID,0,VALID,24.2476,VALID,175,VALID,3.50312,
2010-05-17, 03:02:04,VALID,999.523,VALID,1,VALID,93.768,VALID,0,VALID,24.2866,VALID,176,VALID,3.04414,
2010-05-17, 03:03:04,VALID,999.477,VALID,0.5,VALID,93.7757,VALID,0,VALID,24.2866,VALID,186,VALID,2.56953,
2010-05-17, 03:04:04,VALID,999.448,VALID,0.5,VALID,93.7604,VALID,0,VALID,24.2476,VALID,181,VALID,2.21602,
2010-05-17, 03:05:04,VALID,999.454,VALID,0.5,VALID,93.7909,VALID,0,VALID,24.2086,VALID,172,VALID,0.948047,
2010-05-17, 03:06:04,VALID,999.482,VALID,0.5,VALID,93.7909,VALID,0,VALID,24.2281,VALID,169,VALID,1.95664,
2010-05-17, 03:07:04,VALID,999.515,VALID,0.5,VALID,93.768,VALID,0,VALID,24.1696,VALID,156,VALID,1.61016,
2010-05-17, 03:08:04,VALID,999.5,VALID,0.5,VALID,93.7909,VALID,0,VALID,24.1305,VALID,140,VALID,2.06836,
2010-05-17, 03:09:04,VALID,999.523,VALID,0.5,VALID,93.7985,VALID,0,VALID,24.111,VALID,131,VALID,1.77148,
2010-05-17, 03:10:04,VALID,999.475,VALID,1,VALID,93.7909,VALID,0,VALID,24.0915,VALID,131,VALID,1.3793,
2010-05-17, 03:11:04,VALID,999.433,VALID,1,VALID,93.8214,VALID,0,VALID,24.072,VALID,126,VALID,0.424609,
2010-05-17, 03:12:04,VALID,999.326,VALID,1,VALID,93.8367,VALID,0,VALID,24.0915,VALID,126,VALID,0,
2010-05-17, 03:13:04,VALID,999.358,VALID,0,VALID,93.8443,VALID,0,VALID,24.072,VALID,126,VALID,0,
2010-05-17, 03:14:04,VALID,999.354,VALID,0.5,VALID,93.8596,VALID,0,VALID,24.0933,VALID,130,VALID,0.388672,
2010-05-17, 03:15:04,VALID,999.335,VALID,0.5,VALID,93.8596,VALID,0,VALID,24.0525,VALID,130,VALID,0,
2010-05-17, 03:16:04,VALID,999.349,VALID,0,VALID,93.8748,VALID,0,VALID,24.0525,VALID,130,VALID,0,
2010-05-17, 03:17:04,VALID,999.345,VALID,0,VALID,93.8825,VALID,0,VALID,24.0525,VALID,130,VALID,0,
2010-05-17, 03:18:04,VALID,999.286,VALID,0,VALID,93.8901,VALID,0,VALID,24.0525,VALID,130,VALID,0,
2010-05-17, 03:19:04,VALID,999.241,VALID,0.5,VALID,93.8672,VALID,0,VALID,24.0525,VALID,130,VALID,0.254687,
2010-05-17, 03:20:04,VALID,999.219,VALID,0,VALID,93.8825,VALID,0,VALID,24.0525,VALID,130,VALID,0.177344,
2010-05-17, 03:21:04,VALID,999.192,VALID,0,VALID,93.9054,VALID,0,VALID,24.0525,VALID,130,VALID,0,
2010-05-17, 03:22:04,VALID,999.181,VALID,0.5,VALID,93.9054,VALID,0,VALID,24.0329,VALID,130,VALID,0,
2010-05-17, 03:23:04,VALID,999.179,VALID,0,VALID,93.913,VALID,0,VALID,24.0134,VALID,130,VALID,0.0304688,
2010-05-17, 03:24:04,VALID,999.205,VALID,0,VALID,93.8977,VALID,0,VALID,23.9939,VALID,130,VALID,0.438672,
2010-05-17, 03:25:04,VALID,999.165,VALID,0,VALID,93.9435,VALID,0,VALID,23.9939,VALID,130,VALID,0.49375,
2010-05-17, 03:26:04,VALID,999.188,VALID,0,VALID,93.9283,VALID,0,VALID,23.9939,VALID,130,VALID,0.416016,
2010-05-17, 03:27:04,VALID,999.177,VALID,0.5,VALID,93.974,VALID,0,VALID,23.9939,VALID,130,VALID,0.222656,
2010-05-17, 03:28:04,VALID,999.179,VALID,0,VALID,93.9511,VALID,0,VALID,23.9939,VALID,130,VALID,0.325,
2010-05-17, 03:29:04,VALID,999.172,VALID,0,VALID,93.9664,VALID,0,VALID,23.9939,VALID,131,VALID,0.586719,
2010-05-17, 03:30:04,VALID,999.161,VALID,0,VALID,93.9664,VALID,0,VALID,23.9744,VALID,129,VALID,0.60625,
2010-05-17, 03:31:04,VALID,999.13,VALID,0,VALID,93.9511,VALID,0,VALID,23.9744,VALID,120,VALID,0.559375,
2010-05-17, 03:32:04,VALID,999.099,VALID,0,VALID,93.9893,VALID,0,VALID,23.9744,VALID,120,VALID,0.562109,
2010-05-17, 03:33:04,VALID,999.08,VALID,0.5,VALID,93.9664,VALID,0,VALID,23.9744,VALID,120,VALID,0.385547,
2010-05-17, 03:34:04,VALID,999.087,VALID,0,VALID,94.0045,VALID,0,VALID,23.9744,VALID,120,VALID,0.272266,
2010-05-17, 03:35:04,VALID,999.082,VALID,0,VALID,94.0045,VALID,0,VALID,23.9939,VALID,119,VALID,0.811719,
2010-05-17, 03:36:04,VALID,999.131,VALID,0,VALID,94.0122,VALID,0,VALID,23.9744,VALID,115,VALID,1.2375,
2010-05-17, 03:37:04,VALID,999.153,VALID,0,VALID,94.0122,VALID,0,VALID,23.9939,VALID,115,VALID,1.30547,
2010-05-17, 03:38:04,VALID,999.138,VALID,0,VALID,94.0274,VALID,0,VALID,23.9939,VALID,113,VALID,1.40547,
2010-05-17, 03:39:04,VALID,999.178,VALID,0,VALID,94.0045,VALID,0,VALID,23.9939,VALID,106,VALID,1.45273,
2010-05-17, 03:40:04,VALID,999.17,VALID,0,VALID,94.0198,VALID,0,VALID,24.0134,VALID,101,VALID,1.25898,
2010-05-17, 03:41:04,VALID,999.184,VALID,0,VALID,94.0198,VALID,0,VALID,24.0153,VALID,103,VALID,1.35352,
2010-05-17, 03:42:04,VALID,999.197,VALID,0,VALID,94.0045,VALID,0,VALID,23.9939,VALID,100,VALID,1.35039,
2010-05-17, 03:43:04,VALID,999.188,VALID,0.5,VALID,94.0274,VALID,0,VALID,23.9939,VALID,99,VALID,1.36367,
2010-05-17, 03:44:04,VALID,999.191,VALID,0,VALID,94.0274,VALID,0,VALID,23.9939,VALID,88,VALID,0.897656,
2010-05-17, 03:45:04,VALID,999.173,VALID,0,VALID,94.0427,VALID,0,VALID,23.9939,VALID,72,VALID,0.803906,
2010-05-17, 03:46:04,VALID,999.132,VALID,0,VALID,94.0198,VALID,0,VALID,23.9939,VALID,50,VALID,0.797266,